Time,TemperatureF,DewpointF,PressureIn,WindDirection,WindDirectionDegrees,WindSpeedMPH,WindSpeedGustMPH,Humidity,HourlyPrecipIn,Conditions,Clouds,dailyrainin,SoftwareType,DateUTC
2013-04-18 00:00:00,35.0,-99.9,30.12,East,80,11.0,-999.0,-999,-99.99,,,-99.99,,2013-04-18 05:00:00,
2013-04-18 00:22:00,35.0,-99.9,30.12,East,80,11.0,-999.0,-999,-99.99,,,-99.99,,2013-04-18 05:22:00,
2013-04-18 00:33:00,35.0,-99.9,30.12,East,80,11.0,-999.0,-999,-99.99,,,-99.99,,2013-04-18 05:33:00,
2013-04-18 00:42:00,35.0,-99.9,30.12,East,80,11.0,-999.0,-999,-99.99,,,-99.99,,2013-04-18 05:42:00,
2013-04-18 00:52:00,35.0,-99.9,30.12,East,80,11.0,-999.0,-999,-99.99,,,-99.99,,2013-04-18 05:52:00,
2013-04-18 01:00:00,34.0,-99.9,30.08,NE,50,10.0,-999.0,-999,-99.99,,,-99.99,,2013-04-18 06:00:00,
2013-04-18 01:22:00,34.0,-99.9,30.08,NE,50,10.0,-999.0,-999,-99.99,,,-99.99,,2013-04-18 06:22:00,
2013-04-18 01:32:00,34.0,-99.9,30.08,NE,50,10.0,-999.0,-999,-99.99,,,-99.99,,2013-04-18 06:32:00,
2013-04-18 01:42:00,34.0,-99.9,30.08,NE,50,10.0,-999.0,-999,-99.99,,,-99.99,,2013-04-18 06:42:00,
2013-04-18 01:52:00,34.0,-99.9,30.08,NE,50,10.0,-999.0,-999,-99.99,,,-99.99,,2013-04-18 06:52:00,
2013-04-18 07:00:00,33.0,-99.9,29.88,NNE,20,23.0,-999.0,-999,-99.99,,,-99.99,,2013-04-18 12:00:00,
2013-04-18 07:53:00,33.0,-99.9,29.88,NNE,20,23.0,-999.0,-999,-99.99,,,-99.99,,2013-04-18 12:53:00,
2013-04-18 08:00:00,33.0,-99.9,29.88,NNE,30,25.0,-999.0,-999,-99.99,,,-99.99,,2013-04-18 13:00:00,
2013-04-18 08:22:00,33.0,-99.9,29.88,NNE,30,25.0,-999.0,-999,-99.99,,,-99.99,,2013-04-18 13:22:00,
2013-04-18 08:33:00,33.0,-99.9,29.88,NNE,30,25.0,-999.0,-999,-99.99,,,-99.99,,2013-04-18 13:33:00,
2013-04-18 08:43:00,33.0,-99.9,29.88,NNE,30,25.0,-999.0,-999,-99.99,,,-99.99,,2013-04-18 13:43:00,
2013-04-18 08:53:00,33.0,-99.9,29.88,NNE,30,25.0,-999.0,-999,-99.99,,,-99.99,,2013-04-18 13:53:00,
2013-04-18 09:00:00,33.0,-99.9,29.84,NNE,30,24.0,-999.0,-999,-99.99,,,-99.99,,2013-04-18 14:00:00,
2013-04-18 09:22:00,33.0,-99.9,29.84,NNE,30,24.0,-999.0,-999,-99.99,,,-99.99,,2013-04-18 14:22:00,
2013-04-18 09:33:00,33.0,-99.9,29.84,NNE,30,24.0,-999.0,-999,-99.99,,,-99.99,,2013-04-18 14:33:00,
2013-04-18 09:43:00,33.0,-99.9,29.84,NNE,30,24.0,-999.0,-999,-99.99,,,-99.99,,2013-04-18 14:43:00,
2013-04-18 09:53:00,33.0,-99.9,29.84,NNE,30,24.0,-999.0,-999,-99.99,,,-99.99,,2013-04-18 14:53:00,
2013-04-18 10:00:00,34.0,-99.9,29.80,North,10,25.0,-999.0,-999,-99.99,,,-99.99,,2013-04-18 15:00:00,
2013-04-18 10:23:00,34.0,-99.9,29.80,North,10,25.0,-999.0,-999,-99.99,,,-99.99,,2013-04-18 15:23:00,
2013-04-18 10:33:00,34.0,-99.9,29.80,North,10,25.0,-999.0,-999,-99.99,,,-99.99,,2013-04-18 15:33:00,
2013-04-18 10:43:00,34.0,-99.9,29.80,North,10,25.0,-999.0,-999,-99.99,,,-99.99,,2013-04-18 15:43:00,
2013-04-18 10:53:00,34.0,-99.9,29.80,North,10,25.0,-999.0,-999,-99.99,,,-99.99,,2013-04-18 15:53:00,
2013-04-18 11:00:00,34.0,-99.9,29.81,NNE,20,17.0,-999.0,-999,-99.99,,,-99.99,,2013-04-18 16:00:00,
2013-04-18 11:23:00,34.0,-99.9,29.81,NNE,20,17.0,-999.0,-999,-99.99,,,-99.99,,2013-04-18 16:23:00,
2013-04-18 11:33:00,34.0,-99.9,29.81,NNE,20,17.0,-999.0,-999,-99.99,,,-99.99,,2013-04-18 16:33:00,
2013-04-18 11:43:00,34.0,-99.9,29.81,NNE,20,17.0,-999.0,-999,-99.99,,,-99.99,,2013-04-18 16:43:00,
2013-04-18 11:53:00,34.0,-99.9,29.81,NNE,20,17.0,-999.0,-999,-99.99,,,-99.99,,2013-04-18 16:53:00,
2013-04-18 12:00:00,35.0,-99.9,29.78,NNE,30,14.0,-999.0,-999,-99.99,,,-99.99,,2013-04-18 17:00:00,
2013-04-18 12:22:00,35.0,-99.9,29.78,NNE,30,14.0,-999.0,-999,-99.99,,,-99.99,,2013-04-18 17:22:00,
2013-04-18 12:33:00,35.0,-99.9,29.78,NNE,30,14.0,-999.0,-999,-99.99,,,-99.99,,2013-04-18 17:33:00,
2013-04-18 12:43:00,35.0,-99.9,29.78,NNE,30,14.0,-999.0,-999,-99.99,,,-99.99,,2013-04-18 17:43:00,
2013-04-18 12:52:00,35.0,-99.9,29.78,NNE,30,14.0,-999.0,-999,-99.99,,,-99.99,,2013-04-18 17:52:00,
2013-04-18 13:00:00,35.0,-99.9,29.77,ENE,70,10.0,-999.0,-999,-99.99,,,-99.99,,2013-04-18 18:00:00,
2013-04-18 13:23:00,35.0,-99.9,29.77,ENE,70,10.0,-999.0,-999,-99.99,,,-99.99,,2013-04-18 18:23:00,
2013-04-18 13:33:00,35.0,-99.9,29.77,ENE,70,10.0,-999.0,-999,-99.99,,,-99.99,,2013-04-18 18:33:00,
2013-04-18 13:43:00,35.0,-99.9,29.77,ENE,70,10.0,-999.0,-999,-99.99,,,-99.99,,2013-04-18 18:43:00,
2013-04-18 13:53:00,35.0,-99.9,29.77,ENE,70,10.0,-999.0,-999,-99.99,,,-99.99,,2013-04-18 18:53:00,
2013-04-18 14:00:00,32.0,-99.9,29.74,West,270,13.0,-999.0,-999,-99.99,,,-99.99,,2013-04-18 19:00:00,
2013-04-18 14:22:00,32.0,-99.9,29.74,West,270,13.0,-999.0,-999,-99.99,,,-99.99,,2013-04-18 19:22:00,
2013-04-18 14:33:00,32.0,-99.9,29.74,West,270,13.0,-999.0,-999,-99.99,,,-99.99,,2013-04-18 19:33:00,
2013-04-18 14:43:00,32.0,-99.9,29.74,West,270,13.0,-999.0,-999,-99.99,,,-99.99,,2013-04-18 19:43:00,
2013-04-18 14:53:00,32.0,-99.9,29.74,West,270,13.0,-999.0,-999,-99.99,,,-99.99,,2013-04-18 19:53:00,
2013-04-18 15:00:00,32.0,-99.9,29.72,NE,50,13.0,-999.0,-999,-99.99,,,-99.99,,2013-04-18 20:00:00,
2013-04-18 15:22:00,32.0,-99.9,29.72,NE,50,13.0,-999.0,-999,-99.99,,,-99.99,,2013-04-18 20:22:00,
2013-04-18 15:33:00,32.0,-99.9,29.72,NE,50,13.0,-999.0,-999,-99.99,,,-99.99,,2013-04-18 20:33:00,
2013-04-18 15:43:00,32.0,-99.9,29.72,NE,50,13.0,-999.0,-999,-99.99,,,-99.99,,2013-04-18 20:43:00,
2013-04-18 15:52:00,32.0,-99.9,29.72,NE,50,13.0,-999.0,-999,-99.99,,,-99.99,,2013-04-18 20:52:00,
2013-04-18 16:00:00,32.0,-99.9,29.68,NE,50,16.0,-999.0,-999,-99.99,,,-99.99,,2013-04-18 21:00:00,
2013-04-18 16:22:00,32.0,-99.9,29.68,NE,50,16.0,-999.0,-999,-99.99,,,-99.99,,2013-04-18 21:22:00,
2013-04-18 16:33:00,32.0,-99.9,29.68,NE,50,16.0,-999.0,-999,-99.99,,,-99.99,,2013-04-18 21:33:00,
2013-04-18 16:43:00,32.0,-99.9,29.68,NE,50,16.0,-999.0,-999,-99.99,,,-99.99,,2013-04-18 21:43:00,
2013-04-18 16:53:00,32.0,-99.9,29.68,NE,50,16.0,-999.0,-999,-99.99,,,-99.99,,2013-04-18 21:53:00,
2013-04-18 17:00:00,33.0,-99.9,29.66,NNE,30,11.0,-999.0,-999,-99.99,,,-99.99,,2013-04-18 22:00:00,
2013-04-18 17:23:00,33.0,-99.9,29.66,NNE,30,11.0,-999.0,-999,-99.99,,,-99.99,,2013-04-18 22:23:00,
2013-04-18 17:33:00,33.0,-99.9,29.66,NNE,30,11.0,-999.0,-999,-99.99,,,-99.99,,2013-04-18 22:33:00,
2013-04-18 17:42:00,33.0,-99.9,29.66,NNE,30,11.0,-999.0,-999,-99.99,,,-99.99,,2013-04-18 22:42:00,
2013-04-18 17:53:00,33.0,-99.9,29.66,NNE,30,11.0,-999.0,-999,-99.99,,,-99.99,,2013-04-18 22:53:00,
2013-04-18 18:00:00,33.0,-99.9,29.63,NNE,20,51.0,-999.0,-999,-99.99,,,-99.99,,2013-04-18 23:00:00,
2013-04-18 18:22:00,33.0,-99.9,29.63,NNE,20,51.0,-999.0,-999,-99.99,,,-99.99,,2013-04-18 23:22:00,
2013-04-18 18:32:00,33.0,-99.9,29.63,NNE,20,51.0,-999.0,-999,-99.99,,,-99.99,,2013-04-18 23:32:00,
2013-04-18 18:42:00,33.0,-99.9,29.63,NNE,20,51.0,-999.0,-999,-99.99,,,-99.99,,2013-04-18 23:42:00,
2013-04-18 18:52:00,33.0,-99.9,29.63,NNE,20,51.0,-999.0,-999,-99.99,,,-99.99,,2013-04-18 23:52:00,